When you browse on this site, cookies collect data to enhance your experience and personalize the content and advertising you see.
Visit our Privacy Policy to learn more. By continuing to use the site, you agree to this use of cookies and data.
  • în România
  • Lista ţărilor
  • Pe 7 zile
  • Temperatura apei
  • Hartă satelitară
  • Meteo pe hartă
  • Widget-uri
  • user-avatar
    Intrare

    Meteo pe oră la Nuremberg

    Astăzi, 24 Mai, Vineri

    Timp Temperatura Precipitaţii Vânt Presiune Umiditate
    00:00 +11°C° 0 mm 1 m/s 735 mmHg 84%
    01:00 +10°C° 0 mm 0 m/s 734 mmHg 84%
    02:00 +10°C° 0 mm 0 m/s 734 mmHg 85%
    03:00 +10°C° 0 mm 0 m/s 734 mmHg 85%
    04:00 +10°C° 0 mm 1 m/s 734 mmHg 86%
    05:00 +11°C° 0 mm 0 m/s 734 mmHg 80%
    06:00 +13°C° 0 mm 0 m/s 734 mmHg 75%
    07:00 +14°C° 0 mm 0 m/s 734 mmHg 67%
    08:00 +16°C° 0 mm 0 m/s 734 mmHg 62%
    09:00 +18°C° 0 mm 0 m/s 734 mmHg 56%
    10:00 +20°C° 0 mm 0 m/s 734 mmHg 51%
    11:00 +21°C° 0 mm 0 m/s 734 mmHg 48%
    12:00 +22°C° 0 mm 0 m/s 734 mmHg 46%
    13:00 +23°C° 0 mm 0 m/s 733 mmHg 43%
    14:00 +24°C° 0 mm 1 m/s 733 mmHg 46%
    15:00 +23°C° 0 mm 1 m/s 733 mmHg 49%
    16:00 +22°C° 0 mm 1 m/s 732 mmHg 52%
    17:00 +22°C° 0 mm 1 m/s 732 mmHg 56%
    18:00 +21°C° 0 mm 1 m/s 732 mmHg 60%
    19:00 +20°C° 0 mm 1 m/s 732 mmHg 64%
    20:00 +18°C° 0 mm 1 m/s 732 mmHg 69%
    21:00 +16°C° 0 mm 1 m/s 732 mmHg 74%
    22:00 +14°C° 0 mm 1 m/s 732 mmHg 79%
    23:00 +13°C° 0 mm 0 m/s 732 mmHg 81%

    Mâine, 25 Mai, Sâmbătă

    Timp Temperatura Precipitaţii Vânt Presiune Umiditate
    00:00 +12°C° 0 mm 0 m/s 732 mmHg 84%
    01:00 +12°C° 0 mm 0 m/s 732 mmHg 86%
    02:00 +11°C° 0 mm 0 m/s 732 mmHg 87%
    03:00 +11°C° 0 mm 0 m/s 732 mmHg 88%
    04:00 +11°C° 0 mm 0 m/s 732 mmHg 89%
    05:00 +12°C° 0 mm 0 m/s 732 mmHg 84%
    06:00 +14°C° 0 mm 0 m/s 732 mmHg 79%
    07:00 +15°C° 0 mm 0 m/s 732 mmHg 75%
    08:00 +18°C° 0.5 mm 1 m/s 732 mmHg 74%
    09:00 +19°C° 0.5 mm 1 m/s 732 mmHg 73%
    10:00 +20°C° 0.5 mm 1 m/s 732 mmHg 72%
    11:00 +21°C° 0.2 mm 1 m/s 732 mmHg 66%
    12:00 +21°C° 0.2 mm 2 m/s 732 mmHg 60%
    13:00 +23°C° 0.2 mm 2 m/s 732 mmHg 54%
    14:00 +21°C° 0.3 mm 2 m/s 732 mmHg 58%
    15:00 +21°C° 0.3 mm 2 m/s 732 mmHg 63%
    16:00 +20°C° 0.3 mm 2 m/s 732 mmHg 68%
    17:00 +19°C° 0.2 mm 2 m/s 732 mmHg 73%
    18:00 +19°C° 0.2 mm 1 m/s 732 mmHg 77%
    19:00 +18°C° 0.2 mm 1 m/s 732 mmHg 82%
    20:00 +16°C° 0 mm 1 m/s 732 mmHg 85%
    21:00 +15°C° 0 mm 1 m/s 733 mmHg 88%
    22:00 +14°C° 0 mm 1 m/s 733 mmHg 92%
    23:00 +13°C° 0 mm 1 m/s 733 mmHg 92%

    Poimâine, 26 Mai, Duminică

    Timp Temperatura Precipitaţii Vânt Presiune Umiditate
    00:00 +13°C° 0 mm 1 m/s 733 mmHg 93%
    01:00 +12°C° 0 mm 1 m/s 733 mmHg 94%
    02:00 +12°C° 0 mm 1 m/s 733 mmHg 94%
    03:00 +12°C° 0 mm 1 m/s 733 mmHg 94%
    04:00 +11°C° 0 mm 1 m/s 733 mmHg 94%
    05:00 +12°C° 0 mm 1 m/s 733 mmHg 91%
    06:00 +13°C° 0 mm 2 m/s 733 mmHg 88%
    07:00 +14°C° 0 mm 2 m/s 733 mmHg 85%
    08:00 +16°C° 0 mm 2 m/s 733 mmHg 76%
    09:00 +18°C° 0 mm 3 m/s 733 mmHg 68%
    10:00 +19°C° 0 mm 3 m/s 733 mmHg 59%
    11:00 +20°C° 0 mm 3 m/s 733 mmHg 56%
    12:00 +21°C° 0 mm 3 m/s 733 mmHg 54%
    13:00 +22°C° 0 mm 3 m/s 733 mmHg 51%
    14:00 +22°C° 0 mm 3 m/s 733 mmHg 52%
    15:00 +22°C° 0 mm 3 m/s 732 mmHg 52%
    16:00 +22°C° 0 mm 4 m/s 732 mmHg 53%
    17:00 +21°C° 0 mm 3 m/s 732 mmHg 59%
    18:00 +20°C° 0 mm 2 m/s 732 mmHg 65%
    19:00 +18°C° 0 mm 2 m/s 731 mmHg 71%
    20:00 +17°C° 0 mm 2 m/s 732 mmHg 75%
    21:00 +15°C° 0 mm 2 m/s 732 mmHg 80%
    22:00 +14°C° 0 mm 2 m/s 732 mmHg 84%
    23:00 +13°C° 0 mm 2 m/s 732 mmHg 85%

    27 Mai, Luni

    Timp Temperatura Precipitaţii Vânt Presiune Umiditate
    00:00 +13°C° 0 mm 2 m/s 732 mmHg 86%
    01:00 +12°C° 0 mm 2 m/s 731 mmHg 87%
    02:00 +12°C° 0 mm 2 m/s 731 mmHg 90%
    03:00 +12°C° 0 mm 2 m/s 731 mmHg 92%
    04:00 +12°C° 0 mm 2 m/s 731 mmHg 94%
    05:00 +13°C° 0 mm 2 m/s 731 mmHg 91%
    06:00 +13°C° 0 mm 3 m/s 731 mmHg 88%
    07:00 +16°C° 0 mm 3 m/s 731 mmHg 84%
    08:00 +16°C° 0 mm 3 m/s 731 mmHg 81%
    09:00 +17°C° 0 mm 3 m/s 731 mmHg 78%
    10:00 +18°C° 0 mm 3 m/s 731 mmHg 75%
    11:00 +19°C° 0.2 mm 3 m/s 731 mmHg 72%
    12:00 +20°C° 0.2 mm 3 m/s 731 mmHg 69%
    13:00 +21°C° 0.2 mm 3 m/s 730 mmHg 66%
    14:00 +21°C° 0.5 mm 3 m/s 730 mmHg 70%
    15:00 +20°C° 0.5 mm 3 m/s 730 mmHg 74%
    16:00 +20°C° 0.5 mm 3 m/s 729 mmHg 78%
    17:00 +19°C° 0.1 mm 3 m/s 729 mmHg 79%
    18:00 +19°C° 0.1 mm 2 m/s 729 mmHg 81%
    19:00 +18°C° 0.1 mm 2 m/s 729 mmHg 83%
    20:00 +18°C° 0 mm 1 m/s 729 mmHg 86%
    21:00 +15°C° 0 mm 1 m/s 729 mmHg 89%
    22:00 +14°C° 0 mm 1 m/s 729 mmHg 92%
    23:00 +14°C° 0 mm 1 m/s 729 mmHg 92%

    28 Mai, Marţi

    Timp Temperatura Precipitaţii Vânt Presiune Umiditate
    00:00 +13°C° 0 mm 1 m/s 729 mmHg 91%
    01:00 +13°C° 0 mm 1 m/s 728 mmHg 91%
    02:00 +13°C° 0 mm 1 m/s 728 mmHg 92%
    03:00 +12°C° 0 mm 1 m/s 728 mmHg 93%
    04:00 +12°C° 0 mm 1 m/s 727 mmHg 94%
    05:00 +13°C° 0 mm 1 m/s 727 mmHg 91%
    06:00 +14°C° 0 mm 1 m/s 727 mmHg 88%
    07:00 +15°C° 0 mm 1 m/s 727 mmHg 85%
    08:00 +16°C° 0.1 mm 1 m/s 727 mmHg 80%
    09:00 +18°C° 0.1 mm 1 m/s 727 mmHg 74%
    10:00 +20°C° 0.1 mm 1 m/s 727 mmHg 69%
    11:00 +20°C° 0.5 mm 1 m/s 727 mmHg 70%
    12:00 +20°C° 0.5 mm 1 m/s 727 mmHg 70%
    13:00 +21°C° 0.5 mm 1 m/s 727 mmHg 71%
    14:00 +20°C° 1 mm 1 m/s 727 mmHg 75%
    15:00 +19°C° 1 mm 1 m/s 727 mmHg 80%
    16:00 +17°C° 1 mm 2 m/s 727 mmHg 84%
    17:00 +17°C° 0.6 mm 2 m/s 727 mmHg 86%
    18:00 +16°C° 0.6 mm 2 m/s 727 mmHg 89%
    19:00 +15°C° 0.6 mm 2 m/s 727 mmHg 91%
    20:00 +14°C° 0.5 mm 2 m/s 727 mmHg 93%
    21:00 +14°C° 0.5 mm 2 m/s 728 mmHg 94%
    22:00 +13°C° 0.5 mm 2 m/s 728 mmHg 96%
    23:00 +13°C° 0.6 mm 2 m/s 728 mmHg 96%

    29 Mai, Miercuri

    Timp Temperatura Precipitaţii Vânt Presiune Umiditate
    00:00 +13°C° 0.6 mm 2 m/s 728 mmHg 97%
    01:00 +13°C° 0.6 mm 2 m/s 728 mmHg 97%
    02:00 +13°C° 1.8 mm 2 m/s 728 mmHg 97%
    03:00 +12°C° 1.8 mm 3 m/s 728 mmHg 97%
    04:00 +12°C° 1.8 mm 3 m/s 728 mmHg 96%
    05:00 +12°C° 2.3 mm 3 m/s 728 mmHg 96%
    06:00 +12°C° 2.3 mm 4 m/s 728 mmHg 96%
    07:00 +11°C° 2.3 mm 4 m/s 729 mmHg 95%
    08:00 +11°C° 1.1 mm 4 m/s 729 mmHg 95%
    09:00 +11°C° 1.1 mm 4 m/s 729 mmHg 95%
    10:00 +11°C° 1.1 mm 4 m/s 730 mmHg 95%
    11:00 +11°C° 1.4 mm 4 m/s 730 mmHg 95%
    12:00 +11°C° 1.4 mm 4 m/s 730 mmHg 95%
    13:00 +12°C° 1.4 mm 3 m/s 731 mmHg 95%
    14:00 +12°C° 0.6 mm 3 m/s 731 mmHg 94%
    15:00 +12°C° 0.6 mm 3 m/s 732 mmHg 93%
    16:00 +12°C° 0.6 mm 3 m/s 732 mmHg 91%
    17:00 +12°C° 0.3 mm 3 m/s 733 mmHg 92%
    18:00 +12°C° 0.3 mm 3 m/s 734 mmHg 93%
    19:00 +13°C° 0.3 mm 2 m/s 734 mmHg 93%
    20:00 +12°C° 0.2 mm 2 m/s 735 mmHg 94%
    21:00 +12°C° 0.2 mm 2 m/s 736 mmHg 95%
    22:00 +10°C° 0.2 mm 2 m/s 736 mmHg 96%
    23:00 +9°C° 0 mm 2 m/s 737 mmHg 96%
    Arată mai mult